CW1661 Weather Reports


time (UTC)temp
C
wind
direction
speed
KPH
gust
KPH
rain 1hr
cm
rain 24hr
cm
rain mn
cm
humidity
%
barometer
mb
20260505035220 19 0.0 0.0 0.00 0.00 0.00 67 1007.7
20260505034306 20 0.0 0.0 0.00 0.00 0.00 68 1007.5
20260505033219 20 0.0 0.0 0.00 0.00 0.00 69 1007.3
20260505032220 20 0.0 0.0 0.00 0.00 0.00 68 1007.1
20260505031243 21 0.0 0.0 0.00 0.00 0.00 67 1007.2
20260505030220 21 0.0 0.0 0.00 0.00 0.00 63 1006.9
20260505025243 22 0.0 0.0 0.00 0.00 0.00 62 1006.7
20260505024219 22 0.0 0.0 0.00 0.00 0.00 58 1006.6
20260505023219 23 0.0 0.0 0.00 0.00 0.00 55 1006.5
20260505022220 23 0.0 0.0 0.00 0.00 0.00 55 1006.7
20260505021219 23 0.0 0.0 0.00 0.00 0.00 52 1006.7
20260505020351 24 0.0 0.0 0.00 0.00 0.00 51 1006.7
20260505015219 24 0.0 0.0 0.00 0.00 0.00 51 1006.5
20260505014219 24 0.0 0.0 0.00 0.00 0.00 49 1006.4
20260505013220 25 0.0 0.0 0.00 0.00 0.00 51 1006.6
20260505012220 25 0.0 0.0 0.00 0.00 0.00 49 1006.7
20260505011219 25 0.0 0.0 0.00 0.00 0.00 46 1006.6
20260505010219 25 0.0 0.0 0.00 0.00 0.00 46 1006.8
20260505005243 26 0.0 0.0 0.00 0.00 0.00 44 1007.0
20260505004219 26 0.0 0.0 0.00 0.00 0.00 41 1006.8
20260505003219 27 0.0 0.0 0.00 0.00 0.00 42 1006.9
20260505002220 27 0.0 0.0 0.00 0.00 0.00 40 1006.8
20260505001220 27 0.0 0.0 0.00 0.00 0.00 40 1006.9
20260505000220 27 0.0 0.0 0.00 0.00 0.00 42 1007.1
20260504235219 28 0.0 0.0 0.00 0.00 0.00 42 1007.1
20260504234219 27 0.0 0.0 0.00 0.00 0.00 38 1007.2
20260504233219 27 0.0 0.0 0.00 0.00 0.00 43 1007.3
20260504232219 27 0.0 0.0 0.00 0.00 0.00 39 1007.1
20260504231219 28 0.0 0.0 0.00 0.00 0.00 41 1007.1
20260504230242 27 0.0 0.0 0.00 0.00 0.00 44 1007.2
20260504225219 27 0.0 0.0 0.00 0.00 0.00 43 1007.2
20260504224219 27 0.0 0.0 0.00 0.00 0.00 43 1007.3
20260504223219 27 0.0 0.0 0.00 0.00 0.00 41 1007.4
20260504222219 27 0.0 0.0 0.00 0.00 0.00 41 1007.7
20260504221219 27 0.0 0.0 0.00 0.00 0.00 42 1007.8
20260504220242 27 0.0 0.0 0.00 0.00 0.00 41 1008.0
20260504215219 27 0.0 0.0 0.00 0.00 0.00 43 1007.9
20260504214243 27 0.0 0.0 0.00 0.00 0.00 40 1007.8
20260504213219 27 0.0 0.0 0.00 0.00 0.00 46 1008.0
20260504212219 27 0.0 0.0 0.00 0.00 0.00 42 1008.2
20260504211219 27 0.0 0.0 0.00 0.00 0.00 43 1008.1
20260504210219 27 0.0 0.0 0.00 0.00 0.00 44 1008.1
20260504205219 27 0.0 0.0 0.00 0.00 0.00 45 1008.3
20260504204219 27 0.0 0.0 0.00 0.00 0.00 44 1008.2
20260504203219 27 0.0 0.0 0.00 0.00 0.00 41 1008.2
20260504202219 27 0.0 0.0 0.00 0.00 0.00 44 1008.2
20260504201219 26 0.0 0.0 0.00 0.00 0.00 46 1008.4
20260504200219 26 0.0 0.0 0.00 0.00 0.00 46 1008.4
20260504195219 25 0.0 0.0 0.00 0.00 0.00 45 1008.4
20260504194219 25 0.0 0.0 0.00 0.00 0.00 47 1008.4
20260504193219 25 0.0 0.0 0.00 0.00 0.00 49 1008.4
20260504192219 25 0.0 0.0 0.00 0.00 0.00 53 1008.4
20260504191219 25 0.0 0.0 0.00 0.00 0.00 48 1008.6
20260504190219 25 0.0 0.0 0.00 0.00 0.00 48 1008.5
20260504185242 25 0.0 0.0 0.00 0.00 0.00 55 1008.7
20260504184242 25 0.0 0.0 0.00 0.00 0.00 52 1008.8
20260504183219 25 0.0 0.0 0.00 0.00 0.00 50 1008.8
20260504182219 25 0.0 0.0 0.00 0.00 0.00 49 1008.8
20260504181219 24 0.0 0.0 0.00 0.00 0.00 48 1008.8
20260504180219 23 0.0 0.0 0.00 0.00 0.00 51 1008.8
20260504175219 23 0.0 0.0 0.00 0.00 0.00 54 1008.7
20260504174220 23 0.0 0.0 0.00 0.00 0.00 55 1008.7
20260504173219 23 0.0 0.0 0.00 0.00 0.00 58 1008.7
20260504172219 22 0.0 0.0 0.00 0.00 0.00 57 1009.0
20260504171219 22 0.0 0.0 0.00 0.00 0.00 58 1008.8
20260504170219 22 0.0 0.0 0.00 0.00 0.00 60 1008.8
20260504160219 16 0.0 0.0 0.00 0.00 0.00 80 1008.6
20260504150218 11 0.0 0.0 0.00 0.00 0.00 92 1008.1
20260504141242 10 0.0 0.0 0.00 0.00 0.00 92 1008.2
20260504140218 9 0.0 0.0 0.00 0.00 0.00 91 1008.1
20260504130218 9 0.0 0.0 0.00 0.00 0.00 90 1007.5
20260504120218 10 0.0 0.0 0.00 0.00 0.00 90 1007.6
20260504110220 10 0.0 0.0 0.00 0.00 0.00 89 1007.6
20260504100307 10 0.0 0.0 0.00 0.00 0.00 88 1007.4
20260504081220 11 0.0 0.0 0.00 0.00 0.00 85 1007.3
20260504080220 12 0.0 0.0 0.00 0.00 0.00 85 1007.3
20260504070220 13 0.0 0.0 0.00 0.00 0.00 83 1007.4
20260504060220 14 0.0 0.0 0.00 0.00 0.00 80 1007.5
20260504050220 16 0.0 0.0 0.00 0.00 0.00 76 1007.3
20260504045243 16 0.0 0.0 0.00 0.00 0.00 76 1007.3
20260504044220 17 0.0 0.0 0.00 0.00 0.00 75 1007.3
20260504043243 17 0.0 0.0 0.00 0.00 0.00 75 1007.3
20260504042220 17 0.0 0.0 0.00 0.00 0.00 74 1007.2
20260504041220 18 0.0 0.0 0.00 0.00 0.00 73 1007.2
20260504040219 18 0.0 0.0 0.00 0.00 0.00 73 1007.0